This is the latest recevied weather packets stored in our database for station/object N5ATR. If no packets are shown the sender has not sent any weather packets the latest 10 day(s).
| Time | Temp. | Humidity | Pressure | Rain* | Wind** | Luminosity | Snow |
|---|---|---|---|---|---|---|---|
| 1777345933 | 10° C | 26% | 1012.5 hPa | 0 mm | - | 0 W/m² | - |
| 1777345630 | 10.56° C | 27% | 1012.2 hPa | 0 mm | - | 0 W/m² | - |
| 1777345326 | 10° C | 28% | 1012.3 hPa | 0 mm | - | 0 W/m² | - |
| 1777345023 | 9.44° C | 29% | 1012.3 hPa | 0 mm | - | 0 W/m² | - |
| 1777344719 | 8.89° C | 29% | 1012.3 hPa | 0 mm | - | 0 W/m² | - |
| 1777344416 | 8.89° C | 29% | 1012.3 hPa | 0 mm | - | 0 W/m² | - |
| 1777344114 | 8.89° C | 29% | 1012.1 hPa | 0 mm | - | 0 W/m² | - |
| 1777343810 | 9.44° C | 28% | 1011.9 hPa | 0 mm | - | 0 W/m² | - |
| 1777343508 | 10° C | 28% | 1011.8 hPa | 0 mm | - | 0 W/m² | - |
| 1777343206 | 10° C | 28% | 1011.8 hPa | 0 mm | - | 0 W/m² | - |
| 1777342902 | 10° C | 28% | 1011.7 hPa | 0 mm | - | 0 W/m² | - |
| 1777342599 | 10° C | 28% | 1011.6 hPa | 0 mm | - | 0 W/m² | - |
| 1777342296 | 10° C | 27% | 1011.8 hPa | 0 mm | - | 0 W/m² | - |
| 1777341993 | 10.56° C | 28% | 1011.6 hPa | 0 mm | - | 0 W/m² | - |
| 1777341690 | 10.56° C | 27% | 1011.4 hPa | 0 mm | - | 1 W/m² | - |
| 1777341386 | 11.67° C | 26% | 1011.8 hPa | 0 mm | - | 1 W/m² | - |
| 1777341082 | 11.67° C | 26% | 1011.8 hPa | 0 mm | - | 2 W/m² | - |
| 1777340779 | 12.22° C | 25% | 1011.7 hPa | 0 mm | - | 4 W/m² | - |
| 1777340478 | 12.78° C | 26% | 1011.7 hPa | 0 mm | - | 7 W/m² | - |
| 1777340175 | 13.33° C | 25% | 1011.8 hPa | 0 mm | - | 10 W/m² | - |
| 1777339872 | 13.89° C | 24% | 1011.9 hPa | 0 mm | - | 12 W/m² | - |
| 1777339569 | 14.44° C | 24% | 1011.9 hPa | 0 mm | - | 15 W/m² | - |
| 1777339266 | 15° C | 22% | 1011.9 hPa | 0 mm | - | 18 W/m² | - |
| 1777338965 | 15.56° C | 22% | 1011.8 hPa | 0 mm | - | 18 W/m² | - |
| 1777338661 | 15.56° C | 21% | 1011.8 hPa | 0 mm | - | 22 W/m² | - |
* Rain latest hour (hover to see other rain measurements)
** Current wind speed in m/s (hover to see current wind gust speed)